Wind_Speed
26 26 26 27 27 28 28 28 28 29 29 29 29 28 28 28 28 28 29 29 29 29 29 30 30 31 31 32 32 33 34 35 35 35 35 35 35 36 36 37 37 36 36
27 28 28 28 28 28 29 29 30 29 29 29 29 29 29 29 29 30 30 29 29 30 30 30 31 31 32 33 34 34 35 36 36 36 36 36 36 36 36 37 37 37 37
29 29 29 29 29 29 30 30 30 30 30 30 30 31 31 31 30 31 31 31 31 31 31 32 33 33 34 35 35 36 36 36 37 37 37 38 38 37 37 37 37 37 37
30 30 30 30 31 31 30 30 30 30 31 31 32 32 32 33 33 32 32 32 32 33 33 34 35 34 35 36 36 36 37 37 37 37 37 38 38 38 38 38 38 38 38
30 30 30 30 31 31 30 31 31 31 32 32 33 33 33 33 33 33 34 34 34 34 35 35 35 35 35 35 36 36 36 37 37 36 37 38 39 40 40 39 39 40 39
31 30 30 31 31 31 32 32 32 32 33 33 34 34 34 34 34 35 35 35 35 35 36 36 36 36 36 36 36 36 36 37 38 38 39 39 40 41 41 40 40 40 40
32 31 31 32 32 32 32 33 33 33 34 34 35 35 35 35 35 35 36 36 36 36 37 37 37 37 37 37 37 37 37 38 38 39 40 40 41 40 41 41 42 41 42
33 33 33 33 33 33 34 34 34 35 35 36 36 36 36 36 36 36 36 37 37 37 37 37 37 37 37 37 37 38 38 39 39 40 40 41 41 41 41 41 42 43 43
34 35 35 35 35 36 35 35 36 36 36 37 38 38 39 39 38 38 38 38 38 38 37 37 37 37 37 37 37 38 39 39 40 41 41 41 41 42 42 42 42 43 43
36 36 36 36 35 36 37 37 38 38 39 40 40 40 40 40 40 40 40 39 38 38 38 38 37 37 37 38 38 39 39 40 40 40 40 41 41 41 41 42 42 43 43
36 36 37 37 37 38 39 39 40 40 41 42 42 42 42 42 42 42 40 40 39 39 39 39 39 39 39 39 39 40 40 40 41 41 40 40 41 41 41 42 43 43 44
36 37 39 39 39 40 41 41 42 42 43 43 43 43 44 43 43 43 41 40 40 40 40 40 40 40 40 40 41 41 41 41 41 41 41 41 42 42 42 42 43 43 44
38 39 40 41 42 42 42 41 42 43 43 43 44 45 45 45 44 43 42 42 42 41 41 42 42 42 42 42 42 42 42 42 42 42 42 43 43 44 43 43 44 44 43
41 42 42 42 43 43 42 42 42 43 44 45 46 45 45 44 44 43 42 43 43 43 43 43 43 43 44 44 44 43 43 43 43 43 43 44 44 45 44 44 45 45 44
42 43 43 43 42 42 43 44 44 44 44 45 44 44 44 44 44 44 44 44 44 44 44 44 45 45 46 46 45 45 44 44 44 44 44 45 45 46 46 45 45 45 45
42 42 42 43 43 43 44 44 43 43 43 43 43 43 44 44 44 45 45 46 46 46 46 46 46 46 47 47 47 46 46 46 46 46 46 46 46 47 48 48 47 47 46
42 42 42 43 43 44 43 43 44 44 44 44 44 44 44 44 44 45 46 47 47 47 48 47 47 47 47 47 47 47 47 47 47 47 47 47 47 47 48 48 48 48 47
42 43 43 44 44 44 44 45 45 46 46 46 45 45 45 46 46 47 47 48 48 48 48 48 48 47 47 47 47 48 48 48 48 48 47 47 47 47 47 47 47 47 47
43 44 44 45 45 45 46 47 47 47 47 47 47 47 47 47 47 48 48 48 49 49 48 48 48 48 48 48 48 48 48 48 48 47 47 46 47 47 47 47 47 47 47
44 44 44 44 45 46 47 47 47 47 48 48 48 48 48 48 48 48 48 48 48 48 48 48 48 48 48 49 48 48 48 48 47 47 47 47 48 48 48 48 48 48 48
45 45 45 46 47 47 48 48 48 49 49 49 49 49 49 49 48 48 48 48 48 48 48 48 48 49 49 49 49 49 48 48 48 48 47 48 48 48 48 48 49 48 48
46 46 46 46 47 48 48 48 48 48 48 49 49 49 49 48 48 48 48 48 48 48 49 49 49 49 49 49 49 49 49 49 49 48 48 48 49 48 49 49 49 48 48
47 47 46 46 46 47 47 47 47 47 47 48 49 49 49 49 49 49 49 49 49 49 49 49 49 49 49 49 49 49 49 49 49 48 48 48 49 49 49 49 49 49 48
46 46 45 46 46 46 47 47 46 46 47 48 49 49 49 50 50 50 49 49 49 49 49 50 50 50 49 49 50 50 49 49 49 49 49 48 48 48 49 49 49 49 48
45 45 45 46 46 46 47 47 47 47 48 49 50 50 50 51 51 51 50 49 49 49 50 51 50 50 50 50 50 50 49 49 49 49 49 48 48 48 48 48 48 47 47
45 45 46 46 47 47 48 48 48 48 49 49 49 50 50 50 50 50 49 49 49 49 50 50 50 49 49 49 49 49 48 48 47 47 47 47 47 46 45 46 47 47 46
Wind_Direction
275 277 278 279 281 282 283 284 285 287 288 288 289 289 289 289 289 290 289 288 287 287 286 285 284 283 282 281 281 281 281 280 280 280 280 278 278 276 275 274 273 273 273
276 277 279 280 282 282 283 284 285 286 286 287 288 289 289 288 289 289 289 286 286 286 286 286 286 284 282 282 282 282 282 281 281 280 280 279 278 277 276 275 273 273 274
276 277 279 281 282 282 283 283 284 284 285 286 287 288 288 288 288 288 288 286 284 285 286 286 285 283 281 281 282 282 281 281 281 280 279 278 277 277 276 275 275 275 275
275 276 278 280 281 281 282 283 283 284 285 286 287 287 288 287 286 288 287 286 285 285 285 285 284 283 282 281 281 280 280 280 280 279 279 278 276 276 275 275 274 274 274
275 277 278 278 280 281 282 282 283 284 285 286 287 287 287 287 287 287 286 285 285 285 285 286 285 283 282 282 281 280 280 280 280 279 279 279 277 276 275 274 272 273 273
275 276 277 278 279 281 282 282 283 284 286 286 286 286 286 286 286 286 285 285 285 285 286 286 285 284 283 282 282 280 279 279 280 280 279 279 279 277 275 272 272 272 272
274 276 277 278 280 282 281 282 283 284 285 285 285 285 286 286 285 286 285 284 285 285 286 286 286 284 283 282 281 280 279 280 279 279 279 279 279 277 275 273 272 273 274
274 276 278 279 280 281 282 282 281 282 283 284 284 284 284 285 285 285 286 285 285 284 285 285 285 285 284 283 282 280 279 280 280 279 279 280 279 276 275 274 273 273 275
275 276 277 278 278 279 281 281 281 282 283 283 283 283 283 284 285 285 286 286 285 285 284 285 285 285 284 283 283 282 282 282 281 281 281 280 277 277 276 274 274 275 274
275 275 277 278 278 279 280 281 282 282 282 282 282 283 283 284 284 284 285 285 284 284 284 285 284 283 283 283 283 282 282 282 282 282 282 281 279 279 277 275 275 275 275
275 276 276 278 279 280 281 282 283 283 283 282 283 283 284 284 285 285 284 284 283 283 283 285 284 283 283 284 283 282 282 282 283 283 282 281 279 279 278 276 275 276 275
276 277 277 278 279 280 281 281 282 282 283 283 283 283 283 284 284 283 283 283 282 282 283 284 284 284 283 284 284 284 283 283 283 283 281 280 279 279 279 278 276 278 276
278 279 279 280 280 280 281 281 282 282 283 283 284 284 284 284 284 284 283 282 282 282 283 284 284 284 284 284 285 284 283 283 283 283 282 281 280 280 279 278 277 277 276
280 280 280 281 281 281 281 282 283 283 283 284 284 285 285 285 285 284 283 283 282 282 283 284 284 284 284 284 284 284 283 283 283 283 283 283 282 281 280 279 277 277 276
281 281 280 280 281 282 282 283 284 284 283 284 285 285 285 285 284 283 283 283 283 282 283 283 284 284 283 283 283 283 283 283 282 283 283 283 282 281 280 280 280 279 279
282 282 281 281 281 282 283 283 284 284 284 285 286 286 285 284 284 284 283 283 283 283 283 282 283 283 282 283 283 283 283 282 282 282 283 283 282 281 280 280 280 280 279
282 282 281 281 282 282 283 283 284 285 286 285 285 285 285 284 284 284 284 284 283 283 283 283 283 283 282 283 282 282 283 282 282 282 282 282 282 282 282 281 280 280 279
283 282 282 282 282 282 283 283 284 285 285 285 285 285 285 285 285 285 285 284 284 284 284 283 283 283 283 283 283 282 282 282 282 283 282 282 281 282 281 281 280 280 279
285 284 283 282 282 283 283 284 284 285 285 285 285 285 285 285 285 285 285 285 284 284 284 283 283 282 282 282 282 282 282 282 283 283 283 282 281 281 281 281 280 280 279
286 285 284 283 283 283 284 284 285 285 285 285 285 285 285 286 286 286 285 285 285 284 284 283 283 282 282 282 282 282 282 283 283 283 283 282 282 281 281 281 281 280 279
286 286 285 285 285 285 285 284 284 284 284 284 285 285 286 286 286 285 285 285 284 284 284 283 283 283 283 282 282 282 282 282 283 283 283 283 282 282 282 282 281 281 279
287 287 287 286 286 286 286 285 285 285 284 284 285 285 285 285 285 285 285 285 284 284 284 284 283 283 283 282 282 282 282 282 282 282 283 283 283 282 282 283 282 280 279
288 288 287 287 286 286 285 285 285 285 285 285 285 285 286 286 286 286 285 285 285 284 284 283 283 283 282 282 282 282 282 282 282 282 282 283 283 283 283 283 282 280 279
289 288 288 287 287 286 286 286 285 285 285 285 285 286 286 286 286 286 286 285 285 284 284 284 284 283 283 282 282 283 282 282 282 282 282 284 283 284 284 284 282 281 280
288 288 288 288 287 286 286 286 286 286 286 286 286 286 286 286 286 286 285 285 284 284 284 284 284 283 283 283 284 284 284 283 283 283 283 284 284 284 285 285 284 282 281
289 288 288 288 287 287 286 286 286 287 287 286 286 287 286 286 286 285 285 284 284 284 284 284 284 284 283 283 284 284 285 284 284 284 283 284 284 284 284 285 284 283 282
Height
5824 5823 5823 5822 5822 5821 5821 5820 5819 5819 5817 5816 5815 5813 5812 5811 5809 5808 5807 5806 5805 5804 5803 5802 5802 5801 5800 5800 5799 5799 5799 5798 5798 5798 5797 5797 5797 5797 5797 5797 5797 5797 5798
5817 5817 5817 5816 5816 5815 5814 5814 5813 5812 5811 5810 5809 5807 5806 5804 5803 5802 5800 5799 5798 5797 5796 5795 5794 5794 5793 5792 5792 5791 5791 5790 5790 5789 5789 5789 5788 5788 5788 5788 5788 5788 5789
5811 5811 5810 5810 5809 5808 5808 5807 5806 5806 5805 5804 5802 5801 5799 5798 5796 5795 5794 5793 5792 5791 5789 5788 5787 5786 5785 5784 5784 5783 5782 5782 5781 5781 5780 5780 5780 5779 5779 5779 5779 5779 5780
5804 5804 5804 5803 5802 5802 5801 5800 5800 5799 5798 5797 5796 5794 5793 5791 5790 5788 5787 5786 5785 5783 5782 5781 5779 5778 5777 5776 5775 5774 5774 5773 5772 5772 5771 5771 5770 5770 5770 5770 5770 5770 5771
5798 5797 5797 5796 5795 5795 5794 5793 5793 5792 5791 5790 5788 5787 5785 5784 5782 5781 5780 5778 5777 5776 5775 5773 5771 5770 5769 5768 5767 5766 5765 5764 5763 5763 5762 5761 5761 5761 5760 5760 5761 5761 5761
5791 5790 5790 5789 5788 5787 5787 5786 5785 5784 5783 5782 5781 5779 5778 5776 5775 5773 5772 5771 5769 5768 5766 5765 5763 5761 5760 5759 5758 5757 5756 5755 5754 5753 5752 5752 5751 5750 5750 5750 5750 5751 5751
5783 5783 5783 5782 5781 5780 5779 5778 5778 5777 5776 5774 5773 5772 5770 5768 5767 5765 5764 5762 5761 5759 5758 5756 5754 5753 5751 5750 5749 5748 5747 5746 5745 5744 5743 5742 5741 5740 5740 5740 5740 5741 5741
5776 5776 5775 5774 5774 5773 5771 5771 5770 5769 5767 5766 5764 5763 5762 5761 5759 5757 5755 5754 5752 5751 5749 5747 5745 5744 5742 5741 5740 5739 5738 5736 5735 5734 5733 5732 5730 5729 5729 5729 5729 5729 5730
5768 5767 5767 5766 5765 5765 5763 5762 5761 5760 5758 5757 5755 5754 5753 5751 5750 5749 5746 5745 5743 5741 5740 5738 5736 5735 5733 5732 5730 5729 5728 5727 5725 5724 5723 5721 5720 5719 5718 5718 5718 5718 5718
5760 5759 5758 5758 5757 5756 5755 5753 5752 5751 5749 5748 5746 5744 5743 5741 5740 5739 5737 5735 5734 5732 5730 5728 5727 5725 5724 5722 5721 5719 5718 5717 5715 5714 5712 5711 5709 5708 5708 5707 5707 5707 5707
5751 5751 5750 5749 5748 5747 5745 5744 5743 5741 5739 5738 5736 5734 5732 5731 5729 5728 5727 5726 5724 5722 5720 5719 5717 5715 5714 5713 5711 5709 5708 5706 5705 5703 5702 5700 5699 5698 5697 5697 5696 5696 5696
5742 5742 5741 5740 5738 5737 5736 5734 5733 5731 5729 5727 5725 5723 5722 5720 5719 5717 5716 5715 5714 5712 5710 5708 5707 5705 5703 5702 5700 5699 5697 5695 5694 5692 5691 5689 5688 5687 5686 5685 5685 5684 5684
5733 5732 5731 5730 5729 5727 5726 5724 5722 5720 5718 5716 5714 5712 5711 5709 5707 5706 5705 5704 5703 5702 5700 5698 5696 5694 5692 5691 5689 5688 5686 5684 5683 5681 5680 5678 5677 5675 5675 5674 5673 5672 5672
5724 5723 5721 5720 5719 5717 5716 5714 5712 5710 5707 5706 5703 5701 5699 5698 5696 5695 5694 5693 5692 5691 5689 5687 5685 5683 5681 5679 5678 5676 5675 5673 5671 5670 5668 5666 5665 5663 5662 5661 5661 5660 5659
5715 5713 5711 5710 5708 5706 5705 5703 5701 5699 5697 5695 5692 5690 5688 5686 5685 5683 5682 5681 5680 5679 5678 5675 5673 5671 5669 5668 5666 5664 5663 5661 5659 5658 5656 5654 5653 5651 5649 5648 5647 5647 5646
5704 5702 5701 5699 5697 5696 5694 5692 5690 5688 5686 5683 5681 5679 5677 5675 5673 5672 5670 5669 5667 5666 5665 5663 5661 5659 5657 5655 5654 5652 5650 5649 5647 5645 5643 5641 5640 5638 5636 5635 5634 5633 5632
5694 5692 5690 5688 5686 5684 5682 5681 5679 5677 5674 5672 5670 5668 5666 5664 5662 5660 5658 5656 5654 5653 5652 5650 5648 5646 5644 5642 5640 5639 5637 5635 5633 5632 5630 5628 5626 5624 5623 5621 5620 5619 5618
5683 5681 5679 5677 5675 5673 5671 5669 5667 5665 5663 5661 5658 5656 5654 5652 5650 5647 5645 5643 5641 5639 5638 5637 5635 5632 5631 5629 5627 5625 5624 5622 5620 5618 5616 5614 5612 5611 5609 5607 5606 5604 5603
5672 5669 5667 5665 5663 5661 5659 5657 5655 5653 5651 5649 5646 5644 5642 5639 5637 5635 5632 5630 5628 5626 5624 5623 5621 5619 5617 5615 5614 5612 5610 5608 5606 5604 5602 5600 5598 5597 5595 5593 5592 5590 5589
5660 5658 5656 5653 5651 5649 5647 5645 5643 5641 5638 5636 5634 5631 5629 5626 5624 5621 5619 5616 5614 5612 5610 5609 5607 5606 5604 5601 5600 5598 5596 5594 5592 5590 5588 5586 5584 5582 5581 5579 5577 5576 5574
5649 5646 5644 5641 5639 5637 5635 5632 5630 5628 5625 5623 5620 5618 5615 5613 5610 5608 5606 5603 5601 5599 5596 5594 5593 5591 5589 5587 5586 5584 5582 5580 5577 5576 5573 5571 5570 5568 5566 5564 5562 5561 5559
5637 5634 5631 5629 5626 5624 5621 5619 5617 5614 5612 5610 5607 5604 5602 5599 5597 5594 5592 5589 5587 5585 5583 5580 5579 5577 5575 5573 5571 5569 5567 5566 5564 5562 5560 5557 5555 5553 5551 5549 5547 5545 5544
5624 5622 5619 5616 5613 5610 5608 5605 5603 5601 5598 5596 5593 5590 5588 5585 5583 5580 5578 5576 5573 5570 5568 5566 5564 5562 5560 5559 5557 5555 5553 5551 5549 5547 5545 5543 5540 5538 5536 5533 5532 5530 5529
5612 5609 5606 5603 5600 5597 5594 5592 5589 5587 5585 5582 5579 5577 5574 5571 5569 5566 5564 5561 5559 5556 5554 5551 5550 5548 5546 5544 5542 5540 5538 5536 5534 5532 5530 5529 5526 5523 5520 5518 5516 5514 5513
5599 5596 5593 5590 5588 5585 5581 5579 5576 5574 5571 5568 5565 5562 5560 5557 5554 5552 5549 5547 5545 5542 5539 5537 5535 5533 5531 5529 5527 5525 5523 5521 5520 5517 5515 5513 5511 5509 5506 5503 5500 5498 5497
5586 5583 5581 5577 5574 5572 5568 5565 5562 5560 5558 5555 5551 5548 5545 5542 5539 5537 5534 5532 5530 5528 5525 5523 5520 5518 5516 5514 5512 5510 5508 5506 5504 5503 5501 5499 5496 5494 5493 5489 5486 5483 5482